Location: Chippewa Lake
(41.0698°N, 81.9010°W)
Time: 00:32:14
(UTC+00:00)

Cosmos 2369 - Pass Details

Date: 09 May 2021
Orbit: 840 x 855 km, 71.0° (Epoch: 24 June)

Event Time Altitude Azimuth Distance (km) Brightness Sun altitude
Exits shadow 08:19:15 22° 181° (S) 1,771 5.0 -18.8°
Maximum altitude 08:22:52 59° 109° (ESE) 985 4.1 -18.3°
Drops below altitude 10° 08:28:28 10° 31° (NNE) 2,493 7.3 -17.6°
Sets 08:30:58 0° 28° (NNE) 3,433 8.3 -17.2°
